Probability
17 17 15 13 13 16 18 18 18 15 12 12 11 9 9 9 9 10 10 7 5 3 3 3 4 5 6 7 7 6 5 4 5 6 7 7 6 5 4 2 1 0 0
16 15 13 13 13 16 17 17 16 13 10 9 10 10 10 10 10 10 9 6 4 4 3 3 3 4 4 6 7 6 5 4 5 5 6 6 5 3 2 1 0 0 0
16 16 15 14 15 17 18 18 16 13 9 8 10 12 13 12 9 8 7 5 4 4 4 3 3 3 3 3 5 5 4 3 4 3 4 4 3 1 0 0 0 0 0
19 21 21 18 17 18 18 18 16 13 10 10 13 15 16 13 9 6 5 4 3 4 3 3 3 1 1 1 2 3 2 2 2 2 2 3 2 1 0 0 0 0 0
25 26 24 21 18 18 17 15 14 14 13 14 15 15 14 12 7 4 3 3 3 3 3 3 2 1 0 0 1 2 2 2 2 3 3 3 2 1 0 0 0 0 0
30 27 23 20 18 17 16 15 15 16 16 16 14 13 12 9 4 2 1 2 3 4 4 3 2 1 0 0 0 1 1 1 1 3 3 2 2 1 1 0 0 0 0
29 25 21 19 18 18 17 17 18 18 18 16 14 13 11 7 2 0 0 1 3 5 5 3 2 0 0 0 0 0 0 0 1 2 2 1 1 2 1 0 0 0 0
24 22 20 20 21 20 20 19 19 19 17 15 13 12 10 6 1 0 0 1 3 5 5 4 2 1 0 0 0 1 1 0 0 1 1 0 1 1 1 0 0 0 0
23 23 21 21 22 22 21 20 19 19 16 12 10 8 7 4 1 0 0 1 3 4 4 3 2 1 0 0 1 2 1 0 0 0 0 0 0 0 0 0 0 0 0
26 25 23 20 21 21 21 20 19 17 12 8 6 6 5 3 1 0 0 1 2 3 3 2 1 1 0 0 1 2 1 0 0 0 0 0 0 0 0 0 0 0 0
29 27 24 20 20 20 19 18 16 13 8 5 4 4 3 2 1 0 0 0 1 2 2 1 0 0 0 0 1 1 0 0 0 0 0 0 0 0 0 0 0 0 0
28 26 22 19 18 17 16 15 12 9 6 4 3 3 3 2 1 0 0 0 0 1 1 0 0 0 0 0 0 0 0 0 0 0 0 0 0 0 0 0 0 0 0
25 23 19 16 14 13 13 12 9 7 4 3 3 3 3 3 1 0 0 0 0 0 0 0 0 0 0 0 0 0 0 0 0 0 0 0 0 0 0 0 0 0 0
24 21 18 14 12 11 10 9 8 6 4 3 3 3 3 3 2 1 0 0 0 0 0 0 0 0 0 0 0 0 0 0 0 0 0 0 0 0 0 0 0 0 0
23 21 17 14 11 9 8 7 6 5 4 3 2 3 3 3 2 1 0 0 0 0 0 0 0 0 0 0 0 0 0 0 0 0 0 0 0 0 0 0 0 0 0
21 19 16 12 9 8 7 5 3 2 1 1 1 1 2 1 1 0 0 0 0 0 0 0 0 0 0 0 0 0 0 0 0 0 0 0 0 0 0 0 0 0 0
19 16 12 9 7 7 6 4 2 1 0 0 0 0 0 0 0 0 0 0 0 0 0 0 0 0 0 0 0 0 0 0 0 0 0 0 0 0 0 0 0 0 0
17 13 9 6 5 5 5 5 3 1 0 0 0 0 0 0 0 0 0 0 0 0 0 0 0 0 0 0 0 0 0 0 0 0 0 0 0 0 0 0 0 0 0
13 9 6 5 3 3 3 3 2 1 0 0 0 0 0 0 0 0 0 0 0 0 0 0 0 0 0 0 0 0 0 0 0 0 0 0 0 0 0 0 0 0 0
9 5 3 2 1 1 1 2 1 0 0 0 0 0 0 0 0 0 0 0 0 0 0 0 0 0 0 0 0 0 0 0 0 0 0 0 0 0 0 0 0 0 0
6 4 1 1 1 1 1 1 0 0 0 0 0 0 0 0 0 0 0 0 0 0 0 0 0 0 0 0 0 0 0 0 0 0 0 0 0 0 0 0 0 0 0
6 4 3 2 2 2 1 0 0 0 0 0 0 0 0 0 0 0 0 0 0 0 0 0 0 0 0 0 0 0 0 0 0 0 0 0 0 0 0 0 0 0 0
5 5 4 3 2 1 1 0 0 0 0 0 0 0 0 0 0 0 0 0 0 0 0 0 0 0 0 0 0 0 0 0 0 0 0 0 0 0 0 0 0 0 0
4 4 3 2 1 2 2 1 0 0 0 0 0 0 0 0 0 0 0 0 0 0 0 0 0 0 0 0 0 0 0 0 0 0 0 0 0 0 0 0 0 0 0
3 3 3 3 2 2 2 1 0 0 0 0 0 0 0 0 0 0 0 0 0 0 0 0 0 0 0 0 0 0 0 0 0 0 0 0 0 0 0 0 0 0 0
3 3 3 3 2 1 1 0 0 0 0 0 0 0 0 0 0 0 0 0 0 0 0 0 0 0 0 0 0 0 0 0 0 0 0 0 0 0 0 0 0 0 0
Wind_Speed
5 4 3 3 2 2 1 1 1 1 2 2 2 2 2 2 2 2 2 2 2 2 1 1 1 2 1 1 1 1 1 1 1 0 1 3 4 3 4 4 4 4 6
5 5 4 4 3 3 2 1 1 1 1 2 2 2 2 2 2 2 2 3 3 3 3 3 2 2 2 2 1 1 0 0 1 1 2 2 3 3 4 3 4 4 6
6 6 5 4 4 3 3 2 2 2 2 2 2 3 3 3 3 3 4 4 5 4 4 4 4 3 3 3 2 2 1 1 1 2 2 2 3 3 4 4 5 4 5
6 6 5 4 4 3 3 3 3 3 3 3 3 4 4 4 5 5 5 5 6 6 6 5 5 5 5 4 3 3 3 2 3 3 3 3 3 2 2 3 4 4 4
6 6 5 5 4 4 4 4 4 3 4 4 4 5 5 5 5 5 5 6 6 7 7 7 9 10 11 8 6 5 4 3 3 4 4 3 3 2 2 2 3 3 4
6 6 6 5 5 5 5 4 4 4 5 5 5 6 6 6 8 8 6 7 7 7 7 7 8 9 10 11 12 11 9 5 4 4 4 4 4 3 2 2 2 2 2
7 6 6 6 5 5 5 5 5 5 5 5 6 7 8 8 8 8 8 6 7 7 7 6 6 7 7 7 8 8 10 11 8 4 5 4 4 3 2 2 2 2 3
7 6 6 5 6 5 5 5 5 5 5 6 6 7 7 8 7 6 5 7 8 8 7 7 7 7 7 6 7 9 9 9 8 7 7 6 6 4 3 3 3 3 3
7 6 6 6 6 6 6 6 5 5 6 6 6 6 6 7 6 5 3 6 7 8 8 8 7 8 8 6 6 8 8 8 10 10 9 7 7 6 4 1 1 1 2
7 6 6 6 6 6 6 6 5 5 6 6 6 6 6 6 6 5 4 4 6 6 6 8 11 9 8 7 6 7 7 7 6 7 6 5 5 6 4 3 3 2 2
6 7 6 6 7 7 6 6 6 5 6 6 6 6 6 6 6 6 6 3 4 5 6 6 7 8 8 8 6 7 5 3 4 5 5 5 5 4 5 5 6 5 4
7 7 7 7 6 7 7 6 6 6 6 6 5 5 5 5 5 6 7 6 5 5 5 6 7 7 7 7 6 6 3 2 3 4 4 5 4 4 5 5 6 6 5
7 7 7 7 6 7 7 7 6 5 4 4 4 4 5 5 6 6 7 7 6 5 6 8 6 4 4 6 6 3 2 2 3 3 4 4 4 4 3 3 4 3 3
8 7 7 7 7 6 4 4 4 4 4 4 4 4 4 4 4 4 5 6 6 6 6 6 5 3 3 4 3 2 3 4 3 3 3 3 3 2 2 3 2 2 1
8 7 7 6 6 6 5 4 2 3 2 2 3 4 4 4 4 4 2 3 3 4 4 4 4 3 3 3 3 3 3 3 2 3 3 3 2 2 2 3 3 2 2
7 6 5 5 5 5 6 5 10 8 8 7 6 3 5 6 7 6 6 6 4 1 2 3 3 2 2 3 3 3 3 3 3 2 2 2 2 2 2 2 2 3 3
7 6 5 6 6 6 6 6 6 5 7 7 6 6 6 8 7 6 5 4 2 2 2 3 2 2 2 2 2 2 3 3 2 2 2 2 2 2 2 2 2 2 3
7 6 5 5 5 5 5 6 6 6 6 5 5 6 6 7 6 5 5 5 4 3 2 2 2 2 2 2 2 2 2 2 1 1 2 2 2 2 2 2 2 4 4
6 5 5 5 5 5 5 5 5 5 5 5 6 6 5 6 6 4 4 3 2 2 2 2 2 2 2 1 1 1 1 1 2 2 2 2 2 2 3 3 2 1 4
4 5 5 5 5 6 5 5 6 6 5 5 5 6 7 6 5 5 4 2 1 2 2 2 1 1 1 1 1 0 0 1 0 1 2 2 2 2 3 3 4 3 3
5 6 6 5 5 5 5 5 5 5 5 5 5 5 4 5 4 4 3 3 2 2 1 1 1 1 1 0 0 1 1 0 1 1 2 2 3 3 3 3 3 4 4
5 6 5 5 5 5 5 5 5 5 6 6 5 6 5 4 3 3 3 3 3 2 1 1 1 1 1 0 0 1 1 1 1 1 2 2 2 3 3 3 4 4 4
5 6 5 5 5 5 5 5 5 5 5 5 5 5 6 4 3 3 3 3 2 2 2 1 1 1 1 0 1 1 1 1 1 2 3 3 3 3 3 3 4 5 5
6 6 6 6 6 6 5 5 5 5 5 5 5 5 5 4 4 4 3 3 3 2 2 1 1 1 1 0 0 0 2 3 3 2 3 4 4 4 3 4 5 5 5
5 5 6 6 6 5 5 5 5 5 5 5 5 5 5 5 4 4 4 3 3 2 2 1 1 1 1 0 1 3 6 4 4 5 4 4 4 5 5 5 5 5 6
5 5 5 5 5 5 5 5 5 5 5 5 4 4 4 4 4 3 3 3 3 2 2 2 1 2 1 1 3 5 3 2 2 4 6 5 5 5 6 5 7 6 6
Wind_Direction
151 148 146 145 145 146 129 87 55 27 16 4 4 4 4 10 14 24 28 47 46 36 7 352 345 337 324 290 265 256 253 242 223 250 59 75 69 65 70 72 80 79 78
148 143 139 133 129 122 105 75 60 48 34 28 21 20 21 29 32 41 41 47 51 48 31 20 14 21 9 340 356 8 55 204 187 138 95 80 73 76 76 72 72 74 76
142 138 135 132 125 113 99 81 65 56 43 40 44 39 36 36 41 51 52 53 52 49 42 36 30 27 20 25 22 33 39 76 91 111 99 75 70 67 77 77 74 66 77
137 135 131 124 117 112 103 94 82 74 65 54 53 52 51 52 56 60 60 59 56 51 46 44 39 39 35 37 47 45 48 72 92 102 99 87 84 80 81 83 82 68 60
136 132 128 123 121 116 108 101 93 86 81 72 68 67 63 63 52 55 70 68 63 60 58 57 56 54 47 40 43 45 49 65 91 98 99 96 86 78 70 76 87 88 74
134 129 127 127 124 119 116 111 105 93 84 80 74 72 67 61 50 43 50 71 67 66 64 64 70 64 66 64 60 54 46 49 58 76 86 83 74 72 72 88 95 94 82
136 135 136 137 131 128 126 117 108 101 94 87 82 80 77 66 56 56 53 73 73 68 65 61 61 63 58 71 79 80 65 52 43 48 76 76 83 72 73 91 66 44 56
140 138 137 140 132 126 121 113 104 97 95 90 85 84 84 72 54 56 69 83 77 71 65 66 69 63 52 50 72 72 69 60 51 56 65 66 69 61 56 66 86 103 104
145 144 143 142 136 134 127 118 112 107 102 96 90 87 86 78 49 34 36 95 87 78 69 61 61 70 41 28 74 79 77 78 80 74 68 73 70 55 22 52 84 101 102
145 144 140 140 139 135 128 124 119 114 109 104 93 88 86 82 54 26 356 98 97 96 90 84 67 56 41 26 66 78 79 75 77 89 90 94 89 83 54 21 10 20 47
141 139 138 137 134 128 123 122 124 121 113 104 99 92 85 78 79 45 16 66 95 97 92 86 75 55 51 41 46 67 62 57 84 85 84 78 74 68 58 48 26 15 15
138 138 136 133 130 127 126 126 126 124 121 117 112 107 101 93 75 72 56 46 34 90 87 87 87 77 68 57 59 46 360 335 81 79 76 71 64 60 59 55 47 43 35
141 138 134 130 125 130 135 135 138 141 138 136 134 125 114 110 102 90 83 69 49 75 82 77 84 104 120 99 74 18 339 52 60 64 64 62 61 57 62 87 92 86 77
141 138 136 135 132 129 135 138 141 145 145 145 139 132 127 127 127 130 128 123 124 120 117 119 126 99 91 89 114 93 59 46 35 50 54 60 66 74 52 32 33 44 65
143 143 144 142 136 131 120 85 105 91 70 133 138 142 144 135 100 62 87 114 114 109 137 146 139 129 117 104 94 76 68 72 56 48 45 48 45 45 43 33 8 356 14
149 153 152 144 139 139 130 103 51 56 62 54 46 59 92 94 112 99 83 77 78 119 205 133 120 108 95 88 87 86 74 56 44 43 41 32 29 28 31 23 9 360 6
153 157 158 153 152 153 150 146 136 97 70 65 64 69 94 117 121 122 123 125 140 219 190 118 110 99 85 78 76 74 71 62 27 31 34 27 20 19 20 12 1 356 1
155 154 164 160 156 158 157 154 151 152 149 130 102 101 116 126 134 145 158 168 163 192 160 119 118 112 101 82 73 68 70 75 50 25 31 20 6 -0 0 356 7 355 344
159 159 161 152 151 154 155 153 150 155 151 140 136 128 136 140 141 152 186 212 159 150 141 130 120 118 110 99 76 52 45 50 28 349 28 7 350 342 344 338 351 14 309
151 143 156 156 154 154 158 161 158 157 155 153 152 145 152 166 161 159 187 209 182 138 127 123 115 102 107 104 104 34 40 77 39 329 15 348 337 330 329 323 328 326 323
152 149 158 165 162 161 163 164 159 160 158 156 151 135 151 173 165 157 166 169 171 142 141 144 139 152 145 180 246 250 287 349 1 344 347 333 330 325 316 316 316 314 319
155 159 167 165 158 160 161 161 160 160 159 155 146 143 162 191 165 159 159 156 152 140 130 163 174 135 108 186 286 286 276 303 335 324 321 315 308 306 308 313 319 321 320
159 158 161 158 154 150 165 163 160 162 161 159 161 159 166 181 166 152 148 143 139 135 139 159 173 111 96 55 338 315 317 337 337 330 309 299 304 310 311 315 313 311 320
158 158 159 156 160 163 164 164 165 167 164 164 167 164 164 167 161 153 155 148 145 146 159 169 164 112 107 107 286 336 25 2 328 308 306 304 302 305 307 306 303 313 314
158 158 160 160 165 167 167 169 166 165 165 164 165 162 161 163 164 163 162 155 159 156 156 165 163 138 140 103 15 41 57 35 350 324 288 280 288 296 298 301 302 304 306
152 152 157 162 165 165 166 167 166 168 168 163 164 164 167 167 163 160 160 162 168 157 167 183 181 159 164 179 70 71 79 35 338 314 292 278 283 294 303 299 302 301 302